Regional Weather Roundup
Issued by NWS

Home | Current Version | Previous Version | Graphics & Text | Print | Product List | Glossary On
Versions: 1 2 3 4 5 6 7 8 9 10 11 12 13 14 15 16 17 18 19 20 21 22 23 24 25 26 27 28 29 30 31 32 33 34 35 36 37 38 39 40 41 42 43 44 45 46 47 48 49 50
000
ASUS43 KOAX 211210
RWRNE

WEATHER ROUNDUP FOR NEBRASKA
NATIONAL WEATHER SERVICE OMAHA NE
600 AM CST TUE NOV 21 2017

NOTES: SATELLITE DATA IS BEING USED TO AUGMENT CLOUD COVER ABOVE
       12000 FEET.
       "FAIR" INDICATES FEW OR NO CLOUDS BELOW 12,000 FEET WITH NO
       SIGNIFICANT WEATHER AND/OR OBSTRUCTIONS TO VISIBILITY.


NEZ001>004-019>022-054>056-211300-
NEBRASKA PANHANDLE

CITY           SKY/WX    TMP DP  RH WIND       PRES   REMARKS
SCOTTSBLUFF    CLOUDY    36  25  64 N15       30.14R WCI  27
6HR MIN TEMP:  36; 6HR MAX TEMP:  53;

ALLIANCE       CLOUDY    30  27  88 N17G24    30.11R WCI  18
6HR MIN TEMP:  30; 6HR MAX TEMP:  51;

CHADRON        LGT SNOW  29  28  96 NE7       30.19R FOG     WCI  22
6HR MIN TEMP:  29; 6HR MAX TEMP:  41; 6HR PCP: TRACE;

GORDON         CLOUDY    30  27  88 N13       30.14R WCI  20
6HR MIN TEMP:  30; 6HR MAX TEMP:  40;

KIMBALL        MOCLDY    35  24  64 N9        30.10R WCI  27
SIDNEY         MOCLDY    33  24  69 N14       30.09R WCI  23
6HR MIN TEMP:  33; 6HR MAX TEMP:  53;

$$

NEZ057>060-069>072-079>082-211300-
SOUTHWEST NEBRASKA

CITY           SKY/WX    TMP DP  RH WIND       PRES   REMARKS
NORTH PLATTE   PTCLDY    37  24  59 N24G35    30.03R WCI  26
6HR MIN TEMP:  30; 6HR MAX TEMP:  44;

IMPERIAL       PTCLDY    42  24  49 NE25G35   30.02R
6HR MIN TEMP:  42; 6HR MAX TEMP:  56;

LEXINGTON      PTCLDY    41  24  51 N15       30.01R
MCCOOK         CLOUDY    46  26  45 N22       29.98R
6HR MIN TEMP:  45; 6HR MAX TEMP:  54;

OGALLALA       PTCLDY    38  25  58 N28G33    30.06R WCI  26
$$

NEZ005>010-023>029-035>040-094-211300-
NORTH CENTRAL NEBRASKA

CITY           SKY/WX    TMP DP  RH WIND       PRES   REMARKS
VALENTINE      CLOUDY    33  27  78 NW15G25   30.11R WCI  23
6HR MIN TEMP:  32; 6HR MAX TEMP:  45; 6HR PCP:  0.01;

AINSWORTH      CLOUDY    32  29  89 NW21G26   30.08R WCI  20
BROKEN BOW     PTCLDY    35  27  72 N23G31    30.04R WCI  23
6HR MIN TEMP:  32; 6HR MAX TEMP:  43;

O`NEILL        LGT RAIN  33  31  92 NW15G24   30.06R WCI  23
ORD            CLOUDY    35  30  82 N23G30    30.03R WCI  23
6HR MIN TEMP:  31; 6HR MAX TEMP:  44;

THEDFORD       CLOUDY    33  28  83 N14       30.10R WCI  23
$$

NEZ041-046>049-061>064-073>077-083>087-211300-
SOUTH CENTRAL NEBRASKA

CITY           SKY/WX    TMP DP  RH WIND       PRES   REMARKS
GRAND ISLAND   CLOUDY    40  25  55 N25G33    29.99R WCI  29
6HR MIN TEMP:  33; 6HR MAX TEMP:  43;

AURORA         CLOUDY    39  22  50 N22G30    29.98R WCI  28
HASTINGS       CLOUDY    41  22  46 N25G36    29.97R
6HR MIN TEMP:  36; 6HR MAX TEMP:  44;

HEBRON         CLOUDY    45  27  50 N6G12     29.91R
HOLDREGE       CLOUDY    41  27  56 N23G31    29.97R
KEARNEY        CLOUDY    40  25  55 N28G35    29.99R WCI  29
YORK           CLOUDY    39  25  56 N25G39    29.97R WCI  28
$$

NEZ011>018-030>034-042>045-211300-
NORTHEAST NEBRASKA

CITY           SKY/WX    TMP DP  RH WIND       PRES   REMARKS
NORFOLK        CLOUDY    36  30  79 NW17G28   29.99R WCI  26
6HR MIN TEMP:  34; 6HR MAX TEMP:  44; 6HR PCP: TRACE;

ALBION         CLOUDY    36  32  87 N17G25    30.00R WCI  25
BLAIR          LGT RAIN  38  29  69 N16G24    29.93R WCI  30
COLUMBUS       CLOUDY    38  30  73 N17G25    29.99R WCI  28
FREMONT        LGT RAIN  38  30  73 NW12G24   29.98R WCI  30
TEKAMAH        LGT RAIN  37  28  70 N16       29.95R WCI  28
6HR MIN TEMP:  32; 6HR MAX TEMP:  43; 6HR PCP:  0.01;

WAYNE          CLOUDY    39  27  63 NW15G24   29.97R WCI  30
$$

NEZ050>053-065>068-078-088>093-211300-
SOUTHEAST NEBRASKA

CITY           SKY/WX    TMP DP  RH WIND       PRES   REMARKS
LINCOLN        CLOUDY    42  21  43 N13G25    29.98R
6HR MIN TEMP:  29; 6HR MAX TEMP:  45;

OMAHA EPPLEY   LGT RAIN  39  27  62 N24G35    29.91R WCI  28
6HR MIN TEMP:  34; 6HR MAX TEMP:  43; 6HR PCP: TRACE;

BEATRICE       CLOUDY    45  25  46 N17G23    29.91R
FALLS CITY     CLOUDY    46  28  49 N13G23    29.87R
6HR MIN TEMP:  37; 6HR MAX TEMP:  47;

NEBRASKA CITY  CLOUDY    44  29  57 N14       29.92R
PLATTSMOUTH    CLOUDY    43  22  44 N17G28    29.92R
$$

NEZ044-045-051>053-067-211300-
OMAHA AREA

CITY           SKY/WX    TMP DP  RH WIND       PRES   REMARKS
OMAHA EPPLEY   LGT RAIN  39  27  62 N24G35    29.91R WCI  28
6HR MIN TEMP:  34; 6HR MAX TEMP:  43; 6HR PCP: TRACE;

BLAIR          LGT RAIN  38  29  69 N16G24    29.93R WCI  30
FREMONT        LGT RAIN  38  30  73 NW12G24   29.98R WCI  30
MILLARD        LGT RAIN  43  27  52 N15G23    29.94R
OFFUTT AFB     MOCLDY    42  20  41 N18G35    29.92R
PLATTSMOUTH    CLOUDY    43  22  44 N17G28    29.92R
WAHOO          CLOUDY    41  26  55 N24G31    29.95R
$$



USA.gov is the U.S. government's official web portal to all federal, state and local government web resources and services.